Tracking 30160 objects as of 13-Feb-2025
HD Live streaming from Space Station
objects crossing your sky now

STARLINK-33570

Track STARLINK-33570 now!
10-day predictions
STARLINK-33570 is classified as:


NORAD ID: 62776
Int'l Code: 2025-015U
Perigee: 390.6 km
Apogee: 391.8 km
Inclination: 53.2 °
Period: 92.2 minutes
Semi major axis: 6762 km
RCS: Unknown
Launch date: January 21, 2025
Source: United States (US)
Launch site: AIR FORCE WESTERN TEST RANGE (AFWTR)
Your satellite tracking list
Your tracking list is empty




NASA's NSSDC Master Catalog

Two Line Element Set (TLE):
1 62776U 25015U   25043.91668981 -.01479016  00000-0 -19154-1 0  9994
2 62776  53.1597 335.8076 0000887  87.0285 304.3267 15.61243525  4738
Source of the keplerian elements: AFSPC